Flag Weather past 2 weeks in Nagoya, Japan

Now
63 °F

Sprinkles. Passing clouds.


Feels Like: 63 °F
Forecast: 58 / 62 °F
Wind: 8 mph from North

Location: Nagoya Airport

Current Time: Nov 1, 2014 at 5:16:17 AM

Latest Report: Nov 1, 2014 at 4:30 AM


Visibility: 5 mi

Pressure: 30.04 "Hg

Humidity: 88%

Dew point: 59 °F

Location of NagoyaLocation

Historic Weather in Nagoya — Graph

°F

Nagoya temperature yesterday

Maximum temperature yesterday: 68 °F (at 11:00 AM)
Minimum temperature yesterday: 63 °F (at 12:00 AM)
Average temperature yesterday: 65 °F

Past Weeks' High & Low Weather Summary

 TemperatureHumidityPressure
High72 °F (Oct 20, 9:30 AM)100% (Oct 20, 6:00 PM)30.33 "Hg (Oct 20, 6:00 PM)
Low52 °F (Oct 29, 4:30 AM)20% (Oct 18, 3:00 PM)29.77 "Hg (Oct 22, 1:00 PM)
Average64 °F71%30.12 "Hg
* Reported Oct 17 4:00 AM — Nov 1 4:00 AM, Nagoya, Weather by CustomWeather, © 2014

Note: Actual official high and low records may vary slightly from our data, if they occured in-between our weather recording intervals... More about our weather records

Advertising

Nagoya weather history for previous 24 hours

 ConditionsComfort  
Time TempWeatherWind HumidityBarometerVisibility
4:00 AM
Nov 1
61 °FRain showers. Fog.8 mph100%30.04 "Hg2 mi
3:30 AM61 °FSprinkles. Fog.6 mph94%30.07 "Hg3 mi
3:00 AM63 °FSprinkles. Passing clouds.7 mph94%30.07 "Hg4 mi
2:30 AM63 °FSprinkles. Passing clouds.6 mph94%30.07 "Hg4 mi
2:00 AM63 °FLight rain. Passing clouds.7 mph94%30.09 "Hg5 mi
1:30 AM63 °FLight rain. Passing clouds.5 mph100%30.09 "Hg5 mi
1:00 AM63 °FLight rain. Passing clouds.3 mph94%30.09 "Hg5 mi
12:30 AM63 °FLight rain. Partly cloudy.5 mph94%30.09 "HgN/A
12:00 AM63 °FLight rain. Partly cloudy.5 mph94%30.09 "HgN/A
11:30 PM
Oct 31
63 °FScattered showers. Partly cloudy.6 mph94%30.12 "HgN/A
11:00 PM63 °FSprinkles. Partly cloudy.6 mph94%30.12 "HgN/A
10:30 PM63 °FSprinkles. Partly cloudy.5 mph94%30.15 "HgN/A
10:00 PM64 °FSprinkles. Partly cloudy.8 mph88%30.15 "HgN/A
9:30 PM64 °FSprinkles. Partly cloudy.12 mph88%30.15 "HgN/A
9:00 PM64 °FSprinkles. Partly cloudy.13 mph94%30.15 "Hg4 mi
8:30 PM64 °FSprinkles. Passing clouds.14 mph94%30.15 "Hg4 mi
8:00 PM64 °FSprinkles. Partly cloudy.14 mph94%30.15 "Hg5 mi
7:30 PM66 °FSprinkles. Fog.14 mph94%30.15 "Hg3 mi
7:00 PM64 °FRain showers. Fog.14 mph94%30.15 "Hg2 mi
6:30 PM66 °FSprinkles. Partly cloudy.13 mph88%30.18 "HgN/A
6:00 PM66 °FSprinkles. Partly cloudy.12 mph88%30.15 "HgN/A
5:30 PM66 °FSprinkles. Partly cloudy.13 mph88%30.15 "HgN/A
5:00 PM66 °FSprinkles. Partly cloudy.15 mph88%30.15 "HgN/A
4:30 PM66 °FSprinkles. Broken clouds.12 mph94%30.15 "HgN/A
4:00 PM66 °FSprinkles. Broken clouds.12 mph94%30.15 "Hg6 mi
3:30 PM66 °FSprinkles. Broken clouds.10 mph94%30.15 "Hg4 mi
3:00 PM68 °FSprinkles. Broken clouds.9 mph83%30.15 "HgN/A
2:30 PM68 °FSprinkles. Broken clouds.6 mph83%30.15 "HgN/A
2:00 PM68 °FSprinkles. Partly sunny.5 mph78%30.15 "HgN/A
1:30 PM68 °FSprinkles. Partly sunny.7 mph78%30.15 "Hg6 mi
1:00 PM68 °FSprinkles. Broken clouds.6 mph78%30.15 "Hg6 mi
12:30 PM68 °FScattered showers. Broken clouds.3 mph73%30.15 "Hg5 mi
12:00 PM68 °FPartly sunny.1 mph73%30.18 "Hg5 mi
11:30 AM68 °FScattered showers. Broken clouds.3 mph73%30.18 "Hg4 mi
11:00 AM68 °FLight rain. Broken clouds.3 mph73%30.21 "Hg4 mi
10:30 AM66 °FBroken clouds.2 mph73%30.21 "Hg4 mi
10:00 AM66 °FBroken clouds.5 mph78%30.21 "Hg5 mi
9:30 AM66 °FPartly sunny.3 mph78%30.24 "Hg5 mi
9:00 AM66 °FPartly sunny.5 mph78%30.24 "Hg5 mi
8:30 AM66 °FBroken clouds.3 mph73%30.21 "Hg5 mi
8:00 AM64 °FPartly sunny.6 mph83%30.24 "Hg5 mi
7:30 AM64 °FBroken clouds.9 mph78%30.24 "Hg6 mi
7:00 AM64 °FPartly sunny.8 mph83%30.24 "HgN/A
6:30 AM63 °FBroken clouds.8 mph83%30.21 "HgN/A
6:00 AM64 °FPassing clouds.10 mph78%30.21 "HgN/A
5:30 AM63 °FPartly cloudy.10 mph88%30.21 "HgN/A
5:00 AM64 °FPassing clouds.9 mph83%30.21 "HgN/A
Weather by CustomWeather, © 2014

See weather overviewHow to use our weather pages